Monte Cimone, Italy

5:50 AM CEST on May 30, 2017 (GMT +0200)
Monte Cimone

Weather History for LIVC - March, 2014

Change the Weather History Date:

Sunday, March 9, 2014

  Actual Average Record
Temperature  
Mean Temperature 26 °F -  
Max Temperature 27 °F 31 °F 40 °F (2017)
Min Temperature 24 °F 24 °F 14 °F (1998)
Degree Days  
Heating Degree Days 40    
Moisture  
Dew Point 23 °F    
Average Humidity 87    
Maximum Humidity 100    
Minimum Humidity 73    
Precipitation  
Precipitation 0.00 in 0.07 in - ()
Sea Level Pressure  
Sea Level Pressure 30.22 in    
Wind  
Wind Speed 54 mph ()    
Max Wind Speed 67 mph    
Max Gust Speed -    
Visibility 12.6 miles    
Events Fog    
Averages and records for this station are not official NWS values.
T = Trace of Precipitation, MM = Missing Value Source: Averaged Metar Reports

Daily Weather History Graph

Daily Weather History Graph

Search for Another Location

Airport or City:

Trip Planner

Search our weather history database for the weather conditions in past years. The results will help you decide how hot, cold, wet, or windy it might be!

Date:

Astronomy

Mar. 09, 2014 Rise Set
Actual Time 6:40 AM CET 6:15 PM CET
Civil Twilight 6:11 AM CET 6:44 PM CET
Nautical Twilight 5:38 AM CET 7:17 PM CET
Astronomical Twilight 5:04 AM CET 7:51 PM CET
Moon 11:45 AM CET (3/9) 2:02 AM CET (3/9)
Length of Visible Light 12h 32m
Length of Day
11h 34m
First Quarter, 59% of the Moon is Illuminated
Mar 9
First Quarter
Mar 16
Full
Mar 24
Last Quarter
Mar 30
New
Apr 7
First Quarter

Hourly Weather History & Observations

Time (CET) Temp. Windchill Dew Point Humidity Pressure Visibility Wind Dir Wind Speed Gust Speed Precip Events Conditions
12:00 AM 26 °F - 21 °F 73%  in 19 mi NNE 64.4 mph - -  
12:55 AM 24.8 °F 2.3 °F 21.2 °F 86% 30.27 in - NNE 63.3 mph - N/A   Clear
1:00 AM 25 °F - 22 °F 82%  in 19 mi NNE 63.3 mph - -  
1:55 AM 24.8 °F 1.9 °F 21.2 °F 86% 30.24 in - NNE 66.7 mph - N/A   Clear
2:00 AM 25 °F - 22 °F 81%  in 19 mi NNE 66.7 mph - -  
2:55 AM 24.8 °F 2.2 °F 21.2 °F 86% 30.24 in - NNE 64.4 mph - N/A   Clear
3:00 AM 25 °F - 22 °F 81%  in 19 mi NNE 64.4 mph - -  
3:55 AM 24.8 °F 2.8 °F 21.2 °F 86% 30.24 in - NNE 59.8 mph - N/A   Clear
4:00 AM 25 °F - 22 °F 84%  in 19 mi NNE 59.8 mph - -  
4:55 AM 24.8 °F 2.1 °F 23.0 °F 93% 30.24 in - NNE 65.6 mph - N/A   Clear
5:00 AM 25 °F - 23 °F 88%  in 19 mi NNE 65.6 mph - -  
5:55 AM 24.8 °F 2.3 °F 21.2 °F 86% 30.21 in - NNE 63.3 mph - N/A   Clear
6:00 AM 25 °F - 22 °F 82%  in 19 mi NNE 63.3 mph - -  
6:55 AM 24.8 °F 2.2 °F 23.0 °F 93% 30.21 in - NNE 64.4 mph - N/A   Clear
7:00 AM 25 °F - 23 °F 88%  in 12 mi NNE 64.4 mph - -  
7:55 AM 24.8 °F 1.9 °F 21.2 °F 86% 30.21 in - North 66.7 mph - N/A   Clear
8:00 AM 25 °F - 22 °F 81%  in 12 mi North 66.7 mph - -  
8:55 AM 24.8 °F 3.2 °F 19.4 °F 80% 30.21 in - North 56.4 mph - N/A   Clear
9:00 AM 24 °F - 19 °F 75%  in 19 mi North 56.4 mph - -  
9:55 AM 24.8 °F 2.3 °F 19.4 °F 80% 30.15 in - NNE 63.3 mph - N/A   Clear
10:00 AM 24 °F - 20 °F 78%  in 19 mi NNE 63.3 mph - -  
10:55 AM 24.8 °F 2.9 °F 19.4 °F 80% 30.21 in - North 58.7 mph - N/A   Clear
11:00 AM 25 °F - 20 °F 74%  in 19 mi North 58.7 mph - -  
11:55 AM 24.8 °F 3.4 °F 21.2 °F 86% 30.24 in - NNE 55.2 mph - N/A   Clear
12:00 PM 25 °F - 22 °F 82%  in 19 mi NNE 55.2 mph - -  
12:55 PM 24.8 °F 3.7 °F 23.0 °F 93% 30.24 in - NNE 52.9 mph - N/A   Clear
1:00 PM 25 °F - 22 °F 85%  in 19 mi NNE 52.9 mph - -  
1:55 PM 26.6 °F 6.4 °F 23.0 °F 86% 30.24 in - NNE 51.8 mph - N/A   Clear
2:00 PM 26 °F - 24 °F 87%  in 19 mi NNE 51.8 mph - -  
2:55 PM 26.6 °F 7.5 °F 24.8 °F 93% 30.24 in - NNE 44.9 mph - N/A   Clear
3:00 PM 27 °F - 24 °F 86%  in 19 mi NNE 44.9 mph - -  
3:55 PM 26.6 °F 8.3 °F 26.6 °F 100% 30.27 in 0.0 mi NNE 40.3 mph - N/A Fog Light Freezing Fog
4:00 PM 27 °F - 27 °F 98%  in 0 mi NNE 40.3 mph - - Fog Heavy Fog
4:55 PM 26.6 °F 7.3 °F 26.6 °F 100% 30.24 in 0.0 mi NNE 46.0 mph - N/A Fog Light Freezing Fog
5:00 PM 27 °F - 27 °F 98%  in 0 mi NNE 46.0 mph - - Fog Heavy Fog
5:55 PM 26.6 °F 6.8 °F 26.6 °F 100% 30.21 in 0.0 mi NNE 49.5 mph - N/A Fog Light Freezing Fog
6:00 PM 26 °F - 26 °F 100%  in 0 mi NNE 49.5 mph - - Fog Heavy Fog
6:55 PM 24.8 °F 4.8 °F 24.8 °F 100% 30.21 in 0.1 mi NNE 46.0 mph - N/A Fog Light Freezing Fog
7:00 PM 26 °F - 26 °F 97%  in 0 mi NNE 46.0 mph - - Fog Heavy Fog
7:55 PM 24.8 °F 4.8 °F 23.0 °F 93% 30.21 in - NNE 46.0 mph - N/A   Clear
8:00 PM 26 °F - 24 °F 87%  in 12 mi NNE 46.0 mph - - Fog Light Fog
8:55 PM 26.6 °F 6.4 °F 21.2 °F 80% 30.18 in - NNE 51.8 mph - N/A   Clear
9:00 PM 26 °F - 21 °F 76%  in 19 mi NNE 51.8 mph - -   Partly Cloudy
9:55 PM 26.6 °F 6.3 °F 21.2 °F 80% 30.21 in - NNE 52.9 mph - N/A   Clear
10:00 PM 26 °F - 21 °F 75%  in 19 mi NNE 52.9 mph - -   Partly Cloudy
10:55 PM 24.8 °F 4.6 °F 23.0 °F 93% 30.18 in - NNE 47.2 mph - N/A   Clear
11:00 PM 26 °F - 22 °F 80%  in 19 mi NNE 47.2 mph - -  
11:55 PM 24.8 °F 3.5 °F 23.0 °F 93% 30.15 in 6.2 mi NNE 54.1 mph - N/A   Scattered Clouds